KUZBASS-300 (RS34S SXC*)

Last updated on Wed Sep 13 2023 00:03:03 GMT+0000 (Coordinated Universal Time)

1 53375U 22096F 23255.54914451 .00035196 00000+0 85786-3 0 9992 2 53375 97.4033 162.2855 0003148 110.9385 249.2199 15.40817693 61099

Satellite not in orbit

KUZBASS-300 (RS34S SXC*)